Location: ?p Thanh B�nh
(16.5833°N, 107.5333°E)
Time: 05:22:47
(UTC+00:00)

EO 1 Delta rocket - Pass Details

Date: 29 October 2020
Orbit: 696 x 1793 km, 95.4° (Epoch: 29 November)

Event Time Altitude Azimuth Distance (km) Brightness Sun altitude
Exits shadow 12:08:05 32° 352° (N) 1,206 5.0 -26.2°
Maximum altitude 12:10:10 66° 280° (W) 784 4.1 -26.7°
Drops below altitude 10° 12:15:09 10° 198° (SSW) 2,351 6.8 -27.8°
Sets 12:17:39 0° 195° (SSW) 3,391 7.6 -28.4°
